When you browse on this site, cookies collect data to enhance your experience and personalize the content and advertising you see.
Visit our Privacy Policy to learn more. By continuing to use the site, you agree to this use of cookies and data.
  • In Belgien
  • Länderverzeichnis
  • Für 7 Tage
  • Wassertemperatur
  • Satellitenkarten
  • Wetterkarte
  • Widgets
  • user-avatar
    Anmelden

    Stündliche Wetter Serowe

    Heute, 27 Mai, Montag

    Zeit Temperatur Niederschläge Wind Luftdruck Luftfeuchtigkeit
    00:00 +13°C° 0 mm 1 m/S 669 mmHg 60%
    01:00 +12°C° 0 mm 1 m/S 669 mmHg 63%
    02:00 +12°C° 0 mm 1 m/S 669 mmHg 65%
    03:00 +12°C° 0 mm 1 m/S 669 mmHg 67%
    04:00 +11°C° 0 mm 1 m/S 669 mmHg 69%
    05:00 +11°C° 0 mm 1 m/S 669 mmHg 71%
    06:00 +12°C° 0 mm 1 m/S 669 mmHg 68%
    07:00 +13°C° 0 mm 1 m/S 670 mmHg 64%
    08:00 +14°C° 0 mm 1 m/S 670 mmHg 61%
    09:00 +16°C° 0 mm 2 m/S 670 mmHg 52%
    10:00 +18°C° 0 mm 3 m/S 671 mmHg 43%
    11:00 +21°C° 0 mm 4 m/S 672 mmHg 34%
    12:00 +22°C° 0 mm 4 m/S 671 mmHg 30%
    13:00 +23°C° 0 mm 4 m/S 671 mmHg 26%
    14:00 +25°C° 0 mm 3 m/S 670 mmHg 23%
    15:00 +24°C° 0 mm 3 m/S 670 mmHg 23%
    16:00 +22°C° 0 mm 3 m/S 670 mmHg 24%
    17:00 +22°C° 0 mm 3 m/S 669 mmHg 25%
    18:00 +20°C° 0 mm 3 m/S 669 mmHg 30%
    19:00 +18°C° 0 mm 2 m/S 669 mmHg 34%
    20:00 +16°C° 0 mm 2 m/S 669 mmHg 39%
    21:00 +15°C° 0 mm 2 m/S 669 mmHg 41%
    22:00 +14°C° 0 mm 2 m/S 669 mmHg 44%
    23:00 +14°C° 0 mm 2 m/S 669 mmHg 46%

    Morgen, 28 Mai, Dienstag

    Zeit Temperatur Niederschläge Wind Luftdruck Luftfeuchtigkeit
    00:00 +13°C° 0 mm 2 m/S 668 mmHg 48%
    01:00 +13°C° 0 mm 1 m/S 668 mmHg 49%
    02:00 +12°C° 0 mm 1 m/S 668 mmHg 51%
    03:00 +12°C° 0 mm 1 m/S 668 mmHg 53%
    04:00 +12°C° 0 mm 1 m/S 668 mmHg 55%
    05:00 +11°C° 0 mm 1 m/S 668 mmHg 57%
    06:00 +12°C° 0 mm 2 m/S 669 mmHg 56%
    07:00 +13°C° 0 mm 2 m/S 669 mmHg 56%
    08:00 +13°C° 0 mm 2 m/S 670 mmHg 55%
    09:00 +16°C° 0 mm 2 m/S 670 mmHg 48%
    10:00 +19°C° 0 mm 3 m/S 671 mmHg 41%
    11:00 +21°C° 0 mm 4 m/S 671 mmHg 34%
    12:00 +22°C° 0 mm 4 m/S 671 mmHg 31%
    13:00 +24°C° 0 mm 3 m/S 670 mmHg 27%
    14:00 +25°C° 0 mm 3 m/S 669 mmHg 24%
    15:00 +24°C° 0 mm 3 m/S 669 mmHg 25%
    16:00 +24°C° 0 mm 3 m/S 669 mmHg 25%
    17:00 +23°C° 0 mm 2 m/S 669 mmHg 26%
    18:00 +20°C° 0 mm 2 m/S 669 mmHg 31%
    19:00 +18°C° 0 mm 2 m/S 668 mmHg 36%
    20:00 +16°C° 0 mm 2 m/S 668 mmHg 41%
    21:00 +15°C° 0 mm 2 m/S 669 mmHg 43%
    22:00 +15°C° 0 mm 2 m/S 669 mmHg 46%
    23:00 +14°C° 0 mm 1 m/S 669 mmHg 48%

    übermorgen, 29 Mai, Mittwoch

    Zeit Temperatur Niederschläge Wind Luftdruck Luftfeuchtigkeit
    00:00 +14°C° 0 mm 1 m/S 669 mmHg 49%
    01:00 +13°C° 0 mm 1 m/S 668 mmHg 50%
    02:00 +13°C° 0 mm 1 m/S 668 mmHg 51%
    03:00 +13°C° 0 mm 1 m/S 668 mmHg 53%
    04:00 +12°C° 0 mm 1 m/S 668 mmHg 54%
    05:00 +12°C° 0 mm 1 m/S 668 mmHg 55%
    06:00 +13°C° 0 mm 1 m/S 668 mmHg 54%
    07:00 +14°C° 0 mm 2 m/S 669 mmHg 53%
    08:00 +14°C° 0 mm 2 m/S 670 mmHg 52%
    09:00 +17°C° 0 mm 2 m/S 671 mmHg 44%
    10:00 +20°C° 0 mm 3 m/S 671 mmHg 37%
    11:00 +22°C° 0 mm 4 m/S 672 mmHg 30%
    12:00 +23°C° 0 mm 4 m/S 671 mmHg 27%
    13:00 +25°C° 0 mm 4 m/S 671 mmHg 25%
    14:00 +26°C° 0 mm 4 m/S 670 mmHg 22%
    15:00 +25°C° 0 mm 4 m/S 670 mmHg 23%
    16:00 +24°C° 0 mm 3 m/S 669 mmHg 24%
    17:00 +22°C° 0 mm 3 m/S 669 mmHg 26%
    18:00 +20°C° 0 mm 3 m/S 669 mmHg 31%
    19:00 +18°C° 0 mm 3 m/S 669 mmHg 36%
    20:00 +16°C° 0 mm 3 m/S 669 mmHg 41%
    21:00 +16°C° 0 mm 2 m/S 669 mmHg 44%
    22:00 +15°C° 0 mm 2 m/S 669 mmHg 47%
    23:00 +15°C° 0 mm 2 m/S 669 mmHg 50%

    30 Mai, Donnerstag

    Zeit Temperatur Niederschläge Wind Luftdruck Luftfeuchtigkeit
    00:00 +14°C° 0 mm 1 m/S 669 mmHg 51%
    01:00 +14°C° 0 mm 1 m/S 668 mmHg 53%
    02:00 +13°C° 0 mm 1 m/S 668 mmHg 55%
    03:00 +13°C° 0 mm 1 m/S 668 mmHg 57%
    04:00 +12°C° 0 mm 2 m/S 668 mmHg 59%
    05:00 +12°C° 0 mm 2 m/S 668 mmHg 60%
    06:00 +12°C° 0 mm 2 m/S 669 mmHg 60%
    07:00 +12°C° 0 mm 3 m/S 669 mmHg 60%
    08:00 +13°C° 0 mm 4 m/S 670 mmHg 59%
    09:00 +15°C° 0 mm 4 m/S 670 mmHg 53%
    10:00 +19°C° 0 mm 4 m/S 671 mmHg 46%
    11:00 +21°C° 0 mm 4 m/S 672 mmHg 40%
    12:00 +22°C° 0 mm 4 m/S 671 mmHg 36%
    13:00 +23°C° 0 mm 4 m/S 670 mmHg 31%
    14:00 +25°C° 0 mm 3 m/S 670 mmHg 27%
    15:00 +24°C° 0 mm 3 m/S 669 mmHg 28%
    16:00 +24°C° 0 mm 3 m/S 669 mmHg 29%
    17:00 +22°C° 0 mm 3 m/S 669 mmHg 30%
    18:00 +20°C° 0 mm 3 m/S 669 mmHg 36%
    19:00 +18°C° 0 mm 2 m/S 668 mmHg 42%
    20:00 +16°C° 0 mm 2 m/S 668 mmHg 48%
    21:00 +16°C° 0 mm 2 m/S 668 mmHg 51%
    22:00 +15°C° 0 mm 2 m/S 668 mmHg 55%
    23:00 +14°C° 0 mm 2 m/S 668 mmHg 58%

    31 Mai, Freitag

    Zeit Temperatur Niederschläge Wind Luftdruck Luftfeuchtigkeit
    00:00 +14°C° 0 mm 2 m/S 668 mmHg 59%
    01:00 +14°C° 0 mm 2 m/S 668 mmHg 61%
    02:00 +13°C° 0 mm 2 m/S 667 mmHg 62%
    03:00 +13°C° 0 mm 1 m/S 667 mmHg 64%
    04:00 +13°C° 0 mm 1 m/S 667 mmHg 66%
    05:00 +12°C° 0 mm 1 m/S 667 mmHg 68%
    06:00 +13°C° 0 mm 1 m/S 667 mmHg 65%
    07:00 +14°C° 0 mm 1 m/S 668 mmHg 62%
    08:00 +15°C° 0 mm 2 m/S 669 mmHg 59%
    09:00 +17°C° 0 mm 2 m/S 669 mmHg 49%
    10:00 +20°C° 0 mm 2 m/S 670 mmHg 38%
    11:00 +24°C° 0 mm 3 m/S 670 mmHg 28%
    12:00 +25°C° 0 mm 2 m/S 670 mmHg 25%
    13:00 +26°C° 0 mm 1 m/S 669 mmHg 22%
    14:00 +26°C° 0 mm 0 m/S 669 mmHg 18%
    15:00 +27°C° 0 mm 1 m/S 668 mmHg 19%
    16:00 +26°C° 0 mm 1 m/S 668 mmHg 20%
    17:00 +25°C° 0 mm 2 m/S 668 mmHg 21%
    18:00 +23°C° 0 mm 2 m/S 668 mmHg 24%
    19:00 +21°C° 0 mm 1 m/S 667 mmHg 28%
    20:00 +19°C° 0 mm 1 m/S 667 mmHg 32%
    21:00 +18°C° 0 mm 1 m/S 667 mmHg 34%
    22:00 +18°C° 0 mm 1 m/S 667 mmHg 35%
    23:00 +16°C° 0 mm 1 m/S 667 mmHg 37%

    1 Juni, Samstag

    Zeit Temperatur Niederschläge Wind Luftdruck Luftfeuchtigkeit
    00:00 +16°C° 0 mm 1 m/S 667 mmHg 38%
    01:00 +15°C° 0 mm 1 m/S 667 mmHg 39%
    02:00 +15°C° 0 mm 1 m/S 667 mmHg 40%
    03:00 +15°C° 0 mm 1 m/S 667 mmHg 41%
    04:00 +15°C° 0 mm 1 m/S 667 mmHg 41%
    05:00 +14°C° 0 mm 1 m/S 667 mmHg 42%
    06:00 +15°C° 0 mm 1 m/S 667 mmHg 39%
    07:00 +18°C° 0 mm 1 m/S 668 mmHg 36%
    08:00 +19°C° 0 mm 1 m/S 669 mmHg 34%
    09:00 +20°C° 0 mm 2 m/S 670 mmHg 29%
    10:00 +24°C° 0 mm 3 m/S 670 mmHg 25%
    11:00 +26°C° 0 mm 3 m/S 671 mmHg 20%
    12:00 +27°C° 0 mm 3 m/S 670 mmHg 19%
    13:00 +27°C° 0 mm 2 m/S 669 mmHg 18%
    14:00 +28°C° 0 mm 2 m/S 669 mmHg 17%
    15:00 +27°C° 0 mm 2 m/S 669 mmHg 18%
    16:00 +26°C° 0 mm 2 m/S 669 mmHg 19%
    17:00 +26°C° 0 mm 2 m/S 669 mmHg 20%
    18:00 +24°C° 0 mm 2 m/S 669 mmHg 23%
    19:00 +21°C° 0 mm 2 m/S 669 mmHg 26%
    20:00 +19°C° 0 mm 3 m/S 669 mmHg 29%
    21:00 +18°C° 0 mm 3 m/S 669 mmHg 31%
    22:00 +18°C° 0 mm 3 m/S 669 mmHg 32%
    23:00 +17°C° 0 mm 3 m/S 669 mmHg 34%
    Mehr zeigen